AirNav   Air Wisconsin Up To $57,000 Bonus
 
 613 users online  

KCPK Chesapeake Regional Airport
Norfolk, Virginia, USA

GOING TO NORFOLK?


FAA INFORMATION EFFECTIVE 02 JANUARY 2020

Location

FAA Identifier: CPK
Lat/Long: 36-39-56.2000N 076-19-14.4000W
36-39.936667N 076-19.240000W
36.6656111,-76.3206667
(estimated)
Elevation: 18.7 ft. / 5.7 m (surveyed)
Variation: 11W (2010)
From city: 12 miles S of NORFOLK, VA
Time zone: UTC -5 (UTC -4 during Daylight Saving Time)
Zip code: 23323

Airport Operations

Airport use: Open to the public
Control tower: no
ARTCC: WASHINGTON CENTER
FSS: LEESBURG FLIGHT SERVICE STATION
NOTAMs facility: CPK (NOTAM-D service available)
Attendance: 0800-2000
Pattern altitude: TPA 1000FT AGL (1020 FT MSL) TURBINE/LARGE ACFT 1500 FT AGL (1520 FT MSL).
Wind indicator: lighted
Segmented circle: yes
Lights: ACTVT HIRL RY 05/23, MALSR RY 05 AND REIL RY 23 - CTAF.
Beacon: white-green (lighted land airport)
Operates sunset to sunrise.

Airport Communications

CTAF/UNICOM: 123.075
WX AWOS-3: 123.675 (757-204-4290)
NORFOLK APPROACH: 118.9 125.2
NORFOLK DEPARTURE: 118.9 125.2
WX AWOS-3PT at PVG (9 nm NW): 118.375 (757-465-2175)
WX AWOS-3 at SFQ (13 nm W): 119.375 (757-934-3942)
WX ASOS at ORF (15 nm NE): PHONE 757-460-9348
WX ASOS at NTU (17 nm NE): PHONE DSN 433-3619 or 757-433-3619

Nearby radio navigation aids

VOR radial/distance  VOR name  Freq  Var
ORFr210/14.8NORFOLK VORTAC116.9007W
ECGr351/25.5ELIZABETH CITY VOR/DME112.5007W
CVIr066/31.8COFIELD VORTAC114.6009W
FKNr104/33.4FRANKLIN VORTAC110.6009W

 
NDB name  Hdg/Dist  Freq  Var  ID
INGLE207/11.032909WOR --- .-.
WOODVILLE007/24.225410WLLW .-.. .-.. .--
WAKEFIELD131/37.827411WAKQ .- -.- --.-

Airport Services

Fuel available: 100LL JET-A
FOR FUEL AFT HRS CALL IN ADVANCE 757-421-9000. SELF-SVC AVBL.
FOR FUEL AFTER HRS CALL 757-421-9000.
Parking: hangars and tiedowns
Airframe service: MAJOR
Powerplant service: MAJOR

Runway Information

Runway 5/23

Dimensions: 5500 x 100 ft. / 1676 x 30 m
Surface: asphalt/grooved, in good condition
Weight bearing capacity: 
Single wheel: 30.0
Runway edge lights: high intensity
RUNWAY 5  RUNWAY 23
Latitude: 36-39.574645N36-40.299432N
Longitude: 076-19.577148W076-18.901512W
Elevation: 16.5 ft.18.4 ft.
Traffic pattern: leftright
Runway heading: 047 magnetic, 036 true227 magnetic, 216 true
Markings: precision, in good conditionnonprecision, in good condition
Visual slope indicator: 4-light PAPI on left (3.00 degrees glide path)4-light PAPI on left (3.00 degrees glide path)
Approach lights: MALSR: 1,400 foot medium intensity approach lighting system with runway alignment indicator lights
Runway end identifier lights: noyes
Touchdown point: yes, no lightsyes, no lights
Instrument approach: ILS/DME
Obstructions: 8 ft. brush, 485 ft. from runway, 258 ft. right of centerline, 35:1 slope to clear88 ft. tree, 2205 ft. from runway, 162 ft. right of centerline, 22:1 slope to clear

Airport Ownership and Management from official FAA records

Ownership: Publicly-owned
Owner: CHESAPEAKE AIRPORT AUTHORITY
2800 AIRPORT DRIVE
CHESAPEAKE, VA 23323-6402
Phone 757-432-8110
Manager: CHRIS SCHRANTZ
2800 AIRPORT DRIVE
CHESAPEAKE, VA 23323-6402
Phone 757-432-8110

Airport Operational Statistics

Aircraft based on the field: 109
Single engine airplanes: 96
Multi engine airplanes: 8
Jet airplanes: 1
Helicopters: 2
Ultralights: 2
    
Aircraft operations: avg 127/day *
67% local general aviation
27% transient general aviation
4% air taxi
2% military
* for 12-month period ending 31 December 2017

Additional Remarks

DEER AND GEESE ON & INVOF RY.
GCO AVBL ON FREQ 135.075 THRU NORFOLK CD. IF UN, FOR CD CTC NORFOLK APCH AT 757-464-0757.
NOISE ABATEMENT PROCEDURES IN EFFECT; CTC AMGR 757-432-8110.

Instrument Procedures

NOTE: All procedures below are presented as PDF files. If you need a reader for these files, you should download the free Adobe Reader.

NOT FOR NAVIGATION. Please procure official charts for flight.
FAA instrument procedures published for use from 02 January 2020 at 0901Z to 30 January 2020 at 0900Z.

 
STARs - Standard Terminal Arrivals
DRONE TWO   2 pages: [1] [2] (253KB)
TERKS TWO   download (163KB)
 
IAPs - Instrument Approach Procedures
ILS OR LOC RWY 05   download (289KB)
RNAV (GPS) RWY 05   download (246KB)
RNAV (GPS) RWY 23   download (208KB)
NOTE: Special Alternate Minimums apply   download (60KB)
NOTE: Special Take-Off Minimums/Departure Procedures apply   download (140KB)

Other nearby airports with instrument procedures:

KPVG - Hampton Roads Executive Airport (9 nm NW)
KSFQ - Suffolk Executive Airport (13 nm W)
KORF - Norfolk International Airport (15 nm NE)
KNGU - Norfolk Naval Station (Chambers Field) (16 nm N)
KNTU - Oceana Naval Air Station (Apollo Soucek Field) (17 nm NE)
 
Loc | Ops | Rwys | IFR | FBO | Links
Com | Nav | Svcs | Stats | Notes
Area around KCPK (Chesapeake Regional Airport)
 
Road maps at: MapQuest Bing Google
 
Aerial photo
WARNING: Photo may not be current or correct
Aerial photo of KCPK (Chesapeake Regional Airport)
Photo by Sheila Beaton
Photo taken 23-Mar-2013
looking north.

Do you have a better or more recent aerial photo of Chesapeake Regional Airport that you would like to share? If so, please send us your photo.

 
Sectional chart

 
Airport diagram
CAUTION: Diagram may not be current
Diagram of KCPK (Chesapeake Regional Airport)
 
Airport distance calculator
Flying to Chesapeake Regional Airport? Find the distance to fly.

From to KCPK

Sunrise and sunset
Times for 29-Jan-2020
 Local
(UTC-5)
 Zulu
(UTC)
Morning civil twilight06:4311:43
Sunrise07:1112:11
Sunset17:2622:26
Evening civil twilight17:5422:54

Current date and time
Zulu (UTC)  29-Jan-2020 08:32:40
Local (UTC-5)  29-Jan-2020 03:32:40
 
METAR
KCPK 290815Z AUTO 00000KT 10SM CLR M03/M04 A3006 RMK AO2 T10331038
KNFE 
9nm E 
290756Z AUTO 00000KT 10SM CLR M01/M04 A3004 RMK AO2 SLP175 T10111039
KPVG 
9nm NW 
290756Z AUTO 00000KT 10SM CLR M06/M06 A3006 RMK AO2 SLP180 T10561061 FZRANO PNO $
KSFQ 
13nm W 
290815Z AUTO 00000KT 10SM CLR M02/M03 A3007 RMK AO2 T10181028
KORF 
15nm N 
290751Z 31003KT 10SM CLR 03/00 A3003 RMK AO2 SLP170 T00330000
KNGU 
15nm N 
290759Z 30003KT 10SM CLR 02/M02 A3005 RMK AO2 SLP176 T00171017
KNTU 
17nm NE 
290756Z 23006KT 10SM CLR M01/M03 A3003 RMK AO2 SLP172 T10111028
TAF
KORF 
15nm N 
290534Z 2906/3006 VRB02KT P6SM FEW200 FM291400 01006KT P6SM SCT100 FM292300 VRB03KT P6SM SCT100
KNGU 
15nm N 
2907/3007 34008KT 9999 SKC QNH2995INS T03/2910Z T07/2919Z FN00218
KNTU 
17nm NE 
2907/3007 33008KT 9999 SKC QNH2995INS T03/2910Z T07/2919Z FN00218
NOTAMs
Click for the latest NOTAMs
NOTAMs are issued by the DoD/FAA and will open in a separate window not controlled by AirNav.

 

 
 

FBO, Fuel Providers, and Aircraft Ground Support

  
 Business Name 
 
 Contact 
 
 Services / Description 
 
Fuel Prices
 
Comments
  
Horizon Aviation Services UNICOM 123.075
757-421-9000
toll-free 1-800-600-9990
[web site]
[email]
Airport management, Aviation fuel, Aircraft parking (ramp or tiedown), Passenger terminal and lounge, Pilot school (FAR Part 141), Aircraft rental, ...
More info and photos of Horizon Aviation Services
 
Phillips 66® Aviation Contract Fuel   Certificated Pilot School   FAA-Approved Repair Station   Cessna Pilot Center   Cessna Service Center   PSI FAA Test Center   FAA Authorized Chart Agent   Wireless Internet Access (WiFi)   Wheelchair Accessible  
 
Phillips 66
100LL Jet A
FS $5.69 $4.59 
SS $4.79 $4.19 
GUARANTEED
 
   5 read write
FS=Full service
SS=Self service
Update Fuel Prices
 

Would you like to see your business listed on this page?

 If your business provides an interesting product or service to pilots, flight crews, aircraft, or users of the Chesapeake Regional Airport, you should consider listing it here.  To start the listing process, click on the button below
 
Add a business
 

Other Pages about Chesapeake Regional Airport

www.flyvirginia.com/...
 
Update a link
 
Copyright © AirNav, LLC. All rights reserved. Privacy Policy  Contact